Regional Weather Roundup
Issued by NWS

Home | Current Version | Previous Version | Text Only | Print | Product List | Glossary On
Versions: 1 2 3 4 5 6 7 8 9 10 11 12 13 14 15 16 17 18 19 20 21 22 23 24 25 26 27 28 29 30 31 32 33 34 35 36 37 38 39 40 41 42 43 44 45 46 47 48 49 50
000
ASUS43 KLSX 201957
RWRMO

WEATHER SUMMARY FOR MISSOURI
NATIONAL WEATHER SERVICE SPRINGFIELD MO
300 PM CDT WED SEP 20 2017

NOTE: "FAIR" INDICATES FEW OR NO CLOUDS BELOW 12,000 FEET WITH NO
       SIGNIFICANT WEATHER AND/OR OBSTRUCTIONS TO VISIBILITY.
       CURRENT SKY AND/OR WEATHER CONDITIONS ARE NOT AVAILABLE FOR
       CHILLICOTHE AND FARMINGTON.

MOZ001>031-035>038-043-044-053-054-202100-
...NORTHERN AND WESTERN MISSOURI...

CITY           SKY/WX    TMP DP  RH WIND       PRES   REMARKS
KANSAS CTY INT PTSUNNY   84  73  69 S14       29.81S HX  90
LEE`S SUMMIT   PTSUNNY   88  74  63 SW14      29.81F HX  96
ST JOSEPH      MOSUNNY   90  71  53 SW14G20   29.79S HX  96
CHILLICOTHE      N/A     87  74  64 VRB6      29.81S HX  95

$$
MOZ066>068-077>081-088>096-101>105-202100-
...SOUTHWEST MISSOURI...

CITY           SKY/WX    TMP DP  RH WIND       PRES   REMARKS
SPRINGFIELD    SUNNY     93  71  48 S14       29.88F HX 100
JOPLIN         SUNNY     91  74  57 S14G23    29.83F HX 100
BRANSON        MOSUNNY   91  68  46 SW8G20    29.92F HX  95

$$
MOZ032>034-039>042-045>050-055>058-069>072-202100-
...CENTRAL MISSOURI...

CITY           SKY/WX    TMP DP  RH WIND       PRES   REMARKS
COLUMBIA       NOT AVBL
JEFFERSON CITY SUNNY    N/A N/A N/A S12       29.84F
ROLLA          MOSUNNY   93  68  43 S15       29.91F HX  97
SEDALIA        SUNNY     92  75  57 S16       29.83F HX 103
WARRENSBURG    SUNNY     90  72  55 S12G23    29.81S HX  96

$$
MOZ051-052-059>065-202100-
...EAST CENTRAL MISSOURI...

CITY           SKY/WX    TMP DP  RH WIND       PRES   REMARKS
ST LOUIS INTL  MOSUNNY   94  69  44 S13       29.88F HX  99

$$
MOZ072>076-082>087-097>100-106>115-202100-
...SOUTH CENTRAL AND SOUTHEAST MISSOURI...

CITY           SKY/WX    TMP DP  RH WIND       PRES   REMARKS
CAPE GIRARDEAU MOSUNNY   91  70  49 S10       29.92F HX  96
POPLAR BLUFF   MOSUNNY   92  70  48 S16       29.92F HX  97
WEST PLAINS    MOSUNNY   90  68  48 SW8       29.94F HX  94

$$



USA.gov is the U.S. government's official web portal to all federal, state and local government web resources and services.